Regional Weather Roundup
Issued by NWS

Home | Current Version | Previous Version | Graphics & Text | Print | Product List | Glossary On
Versions: 1 2 3 4 5 6 7 8 9 10 11 12 13 14 15 16 17 18 19 20 21 22 23 24 25 26 27 28 29 30 31 32 33 34 35 36 37 38 39 40 41 42 43 44 45 46 47 48 49 50
000
ASUS44 KMEG 271110
RWRTN
TENNESSEE HOURLY STATE WEATHER ROUNDUP
NATIONAL WEATHER SERVICE MEMPHIS TN
500 AM CST SAT DEC 27 2014

TNZ002-004-019-021-049-052-054-088>092-271200-
WEST TENNESSEE

CITY           SKY/WX    TMP DP  RH WIND       PRES   REMARKS
MEMPHIS INTL   CLOUDY    55  46  71 S9        30.12S
NWS MEMPHIS      N/A     52 N/A N/A MISG        N/A
JACKSON        CLOUDY    51  42  71 S6        30.14F
DYERSBURG      CLOUDY    48  37  66 CALM      30.16S
UNION CITY     CLOUDY    46  46 100 CALM      30.14R
PARIS          CLOUDY    46  41  81 S7        30.15R
HUNTINGDON     CLOUDY    46  43  90 S6        30.16R
LEXINGTON      CLOUDY    52  37  58 S8        30.16S
SAVANNAH       CLOUDY    50  39  66 SE6       30.18S
$$

TNZ008-025-027-028-033-062-065-066-271200-
NORTH MIDDLE TENNESSEE

CITY           SKY/WX    TMP DP  RH WIND       PRES   REMARKS
NASHVILLE      CLOUDY    48  39  71 S6        30.20R
CLARKSVILLE    CLOUDY    48  40  73 S6        30.17R
SMYRNA         CLOUDY    48  39  71 CALM      30.22R
COOKEVILLE     MOCLDY    48  36  61 S7        30.20R
CROSSVILLE     MOCLDY    48  33  56 VRB7      30.22F
$$

TNZ061-075-076-078-094-096-097-271200-
SOUTH MIDDLE TENNESSEE

CITY           SKY/WX    TMP DP  RH WIND       PRES   REMARKS
FAYETTEVILLE   CLOUDY    46  36  66 MISG      30.21R
TULLAHOMA      CLOUDY    46  36  66 S6        30.22R
WINCHESTER     CLOUDY    48  37  66 SE5       30.22R
MCMINNVILLE    MOCLDY    43  43 100 CALM      30.21R
COLUMBIA       CLOUDY    50  45  81 S7        30.18R
SHELBYVILLE    CLOUDY    48  39  71 CALM      30.22R
$$

TNZ017-018-042-046-047-271200-
NORTHEAST TENNESSEE

CITY           SKY/WX    TMP DP  RH WIND       PRES   REMARKS
TRI CITIES     CLOUDY    40  34  79 CALM      30.28S
ELIZABETHTON   PTSUNNY   39  28  65 CALM      30.28S
$$

TNZ012-013-036-069-073-074-271200-
CENTRAL EAST TENNESSEE

CITY           SKY/WX    TMP DP  RH WIND       PRES   REMARKS
KNOXVILLE      CLOUDY    37  34  89 NE3       30.27F
OAK RIDGE      MOCLDY    36  34  92 CALM      30.28S
GATLINBURG     SUNNY     34  32  93 CALM      30.28R
MORRISTOWN     PTSUNNY   39  36  87 CALM      30.28S
$$

TNZ083-085-099-271200-
SOUTHEAST TENNESSEE

CITY           SKY/WX    TMP DP  RH WIND       PRES   REMARKS
CHATTANOOGA    MOCLDY    40  38  93 CALM      30.28S
$$

SKY/WX REPORTED AS FAIR MEANS FEW OR NO CLOUDS BELOW
12 THOUSAND FEET.




USA.gov is the U.S. government's official web portal to all federal, state and local government web resources and services.